Tracking 35048 objects as of 19-Aug-2026
HD Live streaming from Space Station
objects crossing your sky now

STARLINK-1688


STARLINK-1688 is no longer on orbit
STARLINK-1688 is classified as:


NORAD ID: 46371
Int'l Code: 2020-062AY
Launch date: September 3, 2020
Source: United States (US)
Launch site: AIR FORCE EASTERN TEST RANGE (AFETR)
Decay date: 2024-08-04
Your satellite tracking list
Your tracking list is empty




NASA's NSSDC Master Catalog

Two Line Element Set (TLE):
1 46371U 20062AY  24216.97761256  .15418010  12117-4  37951-2 0  9992
2 46371  53.0306  42.2161 0010805 294.8290 189.9520 16.28298332217642
Source of the keplerian elements: AFSPC